Malmö Sturup Airport

Jump to: basic info | weather | frequencies | runways | comments

Related pages: nearby airports | nearby navaids | notams | map

Basic information (top)

Codes: MMX ESMS
Location: lon 55.536305, lat 13.376198, elev 236 ft / 72 m msl
Status: large_airport
Scheduled airline service: yes
Links: Wikipedia Mobile

Weather (top)

Current conditions (rec'd 2014/11/01 01:20Z):

ESMS 010120Z 14004KT 0100 R17/0450N R35/0450N FG VV002 11/11 Q1021

Airport forecast (rec'd 2014/10/31 00:36Z):

TAF ESMS 312315Z 0100/0124 14006KT 0100 FG VV001 
      TEMPO 0100/0108 3000 BR BKN002 
      BECMG 0108/0110 6000 BR FEW008 
      TEMPO 0116/0120 4000 BR BKN004 
      TEMPO 0120/0124 0500 FG BKN002

Frequencies (top)

Verify before use: may be inaccurate or out of date.

APP: 135.9 MHz (MALMO CON)
ATIS: 129.275 MHz (ATIS)
TWR: 118.8 MHz (TWR)

Runways (top)

11/29: 2,615 x 75 ft (797 x 23 m) — paved — not lighted

17/35: 9,186 x 148 ft (2,800 x 45 m) — paved — lighted

Latest comments (top)

ESMS Malmö Airport NDBs withdrawn: The two NDBs at Malmö Airport (NS and ... [read]

More... (top)

See also NOTAMs and nearby airports and navaids, or visit the Malmö Sturup Airport page at the main OurAirports website..